This demonstration page uses our WeatherBlox Daily Observations layout. Learn more.

Left ArrowRight Arrow

41.12389, -100.76542

Hourly Observations for March 23, 2019

Temp ( °F °C ) Dew Point ( °F °C ) Humidity (%) Winds ( mph kmh ) Pressure ( in mb ) Visibility ( mi km ) Precip ( " mm )
12:53 am 00:53 Cloudy with Light Rain 44 6.7 41 5 89 89 ESE 10 17 30.00 1016 10 16 0.01 0.25
1:53 am 01:53 Cloudy 44 6.7 40 4.4 85 85 SSE 8 13 29.98 1015 10 16 0.01 0.25
2:53 am 02:53 Mostly Cloudy 43 6.1 40 4.4 89 89 E 7 11 29.96 1014 10 16 0.00 0.00
3:53 am 03:53 Cloudy with Light Rain 42 5.6 40 4.4 92 92 SE 6 9 29.97 1015 7 11 0.02 0.51
4:53 am 04:53 Cloudy 42 5.6 39 3.9 89 89 E 3 6 29.95 1014 10 16 0.00 0.03
5:53 am 05:53 Cloudy 42 5.6 38 3.3 85 85 ESE 10 17 29.94 1014 10 16 0.00 0.03
6:53 am 06:53 Cloudy with Light Rain 42 5.6 38 3.3 85 85 ESE 10 17 29.94 1014 10 16 0.01 0.25
7:53 am 07:53 Cloudy 42 5.6 38 3.3 85 85 SE 7 11 29.95 1014 10 16 0.00 0.03
8:53 am 08:53 Cloudy 42 5.6 39 3.9 89 89 SE 10 17 29.95 1014 8 13 0.00 0.03
9:16 am 09:16 Cloudy 43 6.1 39 3.9 86 86 ESE 13 20 29.99 1015 10 16 0.00 0.00
9:53 am 09:53 Cloudy 43 6.1 39 3.9 86 86 SE 13 20 29.96 1015 9 14 0.00 0.03
10:20 am 10:20 Cloudy with Light Rain 42 5.6 40 4.4 92 92 ESE 15 24 29.99 1016 2 3 0.01 0.25
10:34 am 10:34 Cloudy with Mist and Fog 42 5.6 40 4.4 92 92 SE 16 26 29.99 1016 5 8 0.01 0.25
10:53 am 10:53 Cloudy with Mist and Fog 43 6.1 40 4.4 89 89 ESE 14 22 29.96 1015 5 8 0.01 0.25
11:01 am 11:01 Cloudy with Mist and Fog 43 6.1 40 4.4 89 89 SE 15 24 29.99 1015 6 10 0.00 0.00
11:53 am 11:53 Cloudy with Mist and Fog 44 6.7 42 5.6 93 93 SE 14 22 29.96 1015 4 6 0.00 0.00
12:53 pm 12:53 Cloudy 46 7.8 43 6.1 89 89 ESE 14 22 29.94 1014 7 11 0.00 0.00
1:23 pm 13:23 Cloudy with Mist and Fog 46 7.8 44 6.7 93 93 SE 13 20 29.94 1014 2 3 0.00 0.00
1:35 pm 13:35 Cloudy with Mist and Fog 46 7.8 43 6.1 89 89 SE 14 22 29.94 1014 3 5 0.00 0.00
1:53 pm 13:53 Cloudy with Mist and Fog 46 7.8 43 6.1 89 89 SE 13 20 29.93 1013 5 8 0.00 0.00
2:26 pm 14:26 Cloudy 47 8.3 42 5.6 83 83 ESE 12 19 29.91 1013 9 14 0.00 0.00
2:53 pm 14:53 Cloudy 47 8.3 41 5 80 80 ESE 13 20 29.91 1013 10 16 0.00 0.00
3:20 pm 15:20 Cloudy 48 8.9 41 5 77 77 ESE 12 19 29.90 1012 10 16 0.00 0.00
3:53 pm 15:53 Cloudy 47 8.3 40 4.4 77 77 ESE 13 20 29.91 1013 10 16 0.00 0.00
4:53 pm 16:53 Cloudy 47 8.3 38 3.3 71 71 ENE 9 15 29.90 1013 10 16 0.00 0.00
5:53 pm 17:53 Cloudy 47 8.3 38 3.3 71 71 ENE 12 19 29.89 1012 10 16 0.00 0.00
6:53 pm 18:53 Cloudy 47 8.3 38 3.3 71 71 NE 8 13 29.91 1013 10 16 0.00 0.00
7:53 pm 19:53 Cloudy 46 7.8 39 3.9 77 77 NNE 8 13 29.93 1013 10 16 0.00 0.03
8:53 pm 20:53 Cloudy 46 7.8 39 3.9 77 77 NNE 7 11 29.93 1014 10 16 0.00 0.00
9:53 pm 21:53 Cloudy 45 7.2 39 3.9 80 80 NE 10 17 29.96 1015 10 16 0.00 0.00
10:53 pm 22:53 Cloudy 45 7.2 40 4.4 83 83 N 10 17 29.98 1015 10 16 0.00 0.00
11:53 pm 23:53 Cloudy 44 6.7 39 3.9 83 83 NE 12 19 29.98 1015 10 16 0.00 0.00

Powered by AerisWeather